User: anonymous   Login
Location: ??????
(33.3472°N, 35.4764°E)
Time: 05:29:38
(UTC+00:00)
Language:

Cosmos 2151 - Orbit

View from above orbital plane
View from above orbital plane
View from above satellite
View from above satellite

Ground track
Ground track

The orbit data is extracted from the following two-line orbital elements,

1 21422U 91042A   19289.14916835  .00000176  00000-0  14761-4 0  9990
2 21422  82.5005 156.4974 0013649 338.4540  21.6104 14.92076064535386
Epoch (UTC): 16 October 2019 03:34:48
Eccentricity: 0.0013649
inclination: 82.5005°
perigee height: 582 km
apogee height: 601 km
right ascension of ascending node: 156.4974°
argument of perigee: 338.4540°
revolutions per day: 14.92076064
mean anomaly at epoch: 21.6104°
orbit number at epoch: 53538

The dashed part of the orbit path shows where the satellite is in the earth's shadow,  

DLR